Time,TemperatureF,DewpointF,PressureIn,WindDirection,WindDirectionDegrees,WindSpeedMPH,WindSpeedGustMPH,Humidity,HourlyPrecipIn,Conditions,Clouds,dailyrainin,SoftwareType,DateUTC
2013-12-06 00:01:00,53.8,53.2,29.90,SSW,203,0.0,0.0,98,0.00,,,0.00,JWX,2013-12-06 05:01:00,
2013-12-06 00:06:00,54.0,53.4,29.90,SSW,203,0.0,0.0,98,0.00,,,0.00,JWX,2013-12-06 05:06:00,
2013-12-06 00:11:00,54.1,53.6,29.91,SSW,203,0.0,2.0,98,0.00,,,0.00,JWX,2013-12-06 05:11:00,
2013-12-06 00:16:00,54.2,53.6,29.90,SSW,203,0.0,0.0,98,0.00,,,0.00,JWX,2013-12-06 05:16:00,
2013-12-06 00:21:00,54.3,53.8,29.90,SSW,203,0.0,0.0,98,0.00,,,0.00,JWX,2013-12-06 05:21:00,
2013-12-06 00:26:00,54.3,53.8,29.89,SSW,203,0.0,0.0,98,0.00,,,0.00,JWX,2013-12-06 05:26:00,
2013-12-06 00:31:00,54.3,53.8,29.89,SSW,202,1.0,5.0,98,0.00,,,0.00,JWX,2013-12-06 05:31:00,
2013-12-06 00:36:00,54.5,53.9,29.89,South,191,1.0,0.0,98,0.00,,,0.00,JWX,2013-12-06 05:36:00,
2013-12-06 00:41:00,54.6,54.1,29.90,South,191,1.0,0.0,98,0.00,,,0.00,JWX,2013-12-06 05:41:00,
2013-12-06 00:46:00,54.7,54.1,29.89,South,190,0.0,4.0,98,0.00,,,0.00,JWX,2013-12-06 05:46:00,
2013-12-06 00:51:00,54.9,54.6,29.89,South,190,1.0,0.0,99,0.00,,,0.00,JWX,2013-12-06 05:51:00,
2013-12-06 00:56:00,55.1,54.8,29.88,South,187,1.0,0.0,99,0.00,,,0.00,JWX,2013-12-06 05:56:00,
2013-12-06 01:01:00,55.2,54.7,29.88,South,187,1.0,0.0,98,0.00,,,0.00,JWX,2013-12-06 06:01:00,
2013-12-06 01:06:00,55.2,54.7,29.88,South,190,1.0,2.0,98,0.00,,,0.00,JWX,2013-12-06 06:06:00,
2013-12-06 01:11:00,55.3,54.7,29.89,South,191,1.0,0.0,98,0.00,,,0.00,JWX,2013-12-06 06:11:00,
2013-12-06 01:16:00,55.4,55.1,29.89,SSW,202,1.0,1.0,99,0.00,,,0.00,JWX,2013-12-06 06:16:00,
2013-12-06 01:21:00,55.5,55.3,29.89,SSW,202,1.0,0.0,99,0.00,,,0.00,JWX,2013-12-06 06:21:00,
2013-12-06 01:26:00,55.5,55.3,29.88,SSW,204,1.0,0.0,99,0.00,,,0.00,JWX,2013-12-06 06:26:00,
2013-12-06 01:31:00,55.4,55.1,29.88,SSW,204,1.0,0.0,99,0.00,,,0.00,JWX,2013-12-06 06:31:00,
2013-12-06 01:36:00,55.4,54.8,29.88,SSW,207,1.0,0.0,98,0.00,,,0.00,JWX,2013-12-06 06:36:00,
2013-12-06 01:41:00,55.4,54.8,29.88,SW,219,1.0,0.0,98,0.00,,,0.00,JWX,2013-12-06 06:41:00,
2013-12-06 01:46:00,55.4,54.8,29.88,SW,221,1.0,0.0,98,0.00,,,0.00,JWX,2013-12-06 06:46:00,
2013-12-06 01:51:00,55.1,54.5,29.89,West,259,1.0,2.0,98,0.00,,,0.00,JWX,2013-12-06 06:51:00,
2013-12-06 01:56:00,54.5,53.9,29.89,WNW,295,2.0,9.0,98,0.01,,,0.01,JWX,2013-12-06 06:56:00,
2013-12-06 02:01:00,53.3,52.4,29.89,NW,316,4.0,4.0,97,0.00,,,0.01,JWX,2013-12-06 07:01:00,
2013-12-06 02:06:00,52.6,51.7,29.90,WNW,302,4.0,4.0,97,0.00,,,0.01,JWX,2013-12-06 07:06:00,
2013-12-06 02:11:00,52.3,51.8,29.90,NW,304,4.0,4.0,98,0.00,,,0.01,JWX,2013-12-06 07:11:00,
2013-12-06 02:16:00,52.1,51.6,29.91,WNW,299,4.0,4.0,98,0.00,,,0.01,JWX,2013-12-06 07:16:00,
2013-12-06 02:21:00,52.1,51.6,29.91,NW,312,4.0,4.0,98,0.03,,,0.04,JWX,2013-12-06 07:21:00,
2013-12-06 02:26:00,52.0,51.4,29.92,WNW,299,5.0,12.0,98,0.05,,,0.06,JWX,2013-12-06 07:26:00,
2013-12-06 02:31:00,51.8,51.3,29.93,NW,315,7.0,12.0,98,0.07,,,0.08,JWX,2013-12-06 07:31:00,
2013-12-06 02:36:00,51.4,50.9,29.91,WNW,299,9.0,9.0,98,0.10,,,0.11,JWX,2013-12-06 07:36:00,
2013-12-06 02:41:00,50.9,50.4,29.91,NW,322,8.0,8.0,98,0.11,,,0.12,JWX,2013-12-06 07:41:00,
2013-12-06 02:46:00,50.1,49.4,29.92,NNW,335,7.0,7.0,97,0.12,,,0.13,JWX,2013-12-06 07:46:00,
2013-12-06 02:51:00,49.6,48.8,29.93,NNW,344,7.0,7.0,97,0.12,,,0.13,JWX,2013-12-06 07:51:00,
2013-12-06 02:56:00,48.9,48.1,29.93,NW,323,8.0,14.0,97,0.13,,,0.14,JWX,2013-12-06 07:56:00,
2013-12-06 03:01:00,48.2,47.4,29.95,NW,323,10.0,10.0,97,0.00,,,0.15,JWX,2013-12-06 08:01:00,
2013-12-06 03:06:00,47.7,46.9,29.96,NNW,340,10.0,10.0,97,0.00,,,0.15,JWX,2013-12-06 08:06:00,
2013-12-06 03:11:00,47.2,46.3,29.96,NNW,331,9.0,9.0,97,0.00,,,0.15,JWX,2013-12-06 08:11:00,
2013-12-06 03:17:00,46.7,46.0,29.96,NNW,329,7.0,8.0,97,0.00,,,0.15,JWX,2013-12-06 08:17:00,
2013-12-06 03:22:00,46.2,45.4,29.96,NNW,342,8.0,8.0,97,0.00,,,0.16,JWX,2013-12-06 08:22:00,
2013-12-06 03:27:00,46.0,45.2,29.96,NNW,336,8.0,8.0,97,0.00,,,0.16,JWX,2013-12-06 08:27:00,
2013-12-06 03:32:00,45.8,45.1,29.97,NNW,329,8.0,8.0,97,0.01,,,0.17,JWX,2013-12-06 08:32:00,
2013-12-06 03:37:00,45.7,44.9,29.97,NNW,330,7.0,12.0,97,0.01,,,0.17,JWX,2013-12-06 08:37:00,
2013-12-06 03:42:00,45.6,45.1,29.97,North,352,6.0,8.0,98,0.01,,,0.17,JWX,2013-12-06 08:42:00,
2013-12-06 03:47:00,45.4,44.5,29.97,NW,324,6.0,8.0,97,0.02,,,0.18,JWX,2013-12-06 08:47:00,
2013-12-06 03:52:00,45.3,44.5,29.98,NNW,336,6.0,6.0,97,0.02,,,0.18,JWX,2013-12-06 08:52:00,
2013-12-06 03:57:00,45.2,44.3,29.98,NNW,348,6.0,6.0,97,0.02,,,0.18,JWX,2013-12-06 08:57:00,
2013-12-06 04:02:00,45.1,44.6,29.98,North,10,6.0,11.0,98,0.00,,,0.18,JWX,2013-12-06 09:02:00,
2013-12-06 04:07:00,44.9,44.2,29.98,North,0,5.0,5.0,97,0.00,,,0.18,JWX,2013-12-06 09:07:00,
2013-12-06 04:12:00,44.8,44.0,29.99,NNW,347,4.0,4.0,97,0.01,,,0.19,JWX,2013-12-06 09:12:00,
2013-12-06 04:17:00,44.7,44.2,29.99,North,6,4.0,4.0,98,0.02,,,0.20,JWX,2013-12-06 09:17:00,
2013-12-06 04:22:00,44.5,43.9,30.00,North,351,5.0,0.0,98,0.03,,,0.21,JWX,2013-12-06 09:22:00,
2013-12-06 04:27:00,44.2,43.4,29.99,North,5,6.0,6.0,97,0.03,,,0.21,JWX,2013-12-06 09:27:00,
2013-12-06 04:32:00,43.8,43.1,29.99,NNW,342,6.0,7.0,97,0.03,,,0.21,JWX,2013-12-06 09:32:00,
2013-12-06 04:37:00,43.7,42.9,30.00,NNW,332,6.0,9.0,97,0.04,,,0.22,JWX,2013-12-06 09:37:00,
2013-12-06 04:42:00,43.5,42.7,30.00,NNW,341,7.0,10.0,97,0.04,,,0.22,JWX,2013-12-06 09:42:00,
2013-12-06 04:47:00,43.2,42.4,30.00,North,1,7.0,7.0,97,0.04,,,0.22,JWX,2013-12-06 09:47:00,
2013-12-06 04:52:00,43.0,42.2,29.99,NNW,342,6.0,6.0,97,0.04,,,0.22,JWX,2013-12-06 09:52:00,
2013-12-06 04:57:00,42.8,42.0,30.00,NNW,342,6.0,6.0,97,0.04,,,0.22,JWX,2013-12-06 09:57:00,
2013-12-06 05:02:00,42.6,41.8,29.99,North,350,6.0,10.0,97,0.00,,,0.22,JWX,2013-12-06 10:02:00,
2013-12-06 05:07:00,42.4,41.6,30.00,NNW,345,7.0,7.0,97,0.00,,,0.22,JWX,2013-12-06 10:07:00,
2013-12-06 05:12:00,42.3,41.5,29.99,NNW,344,6.0,6.0,97,0.00,,,0.22,JWX,2013-12-06 10:12:00,
2013-12-06 05:17:00,42.2,41.5,30.00,North,354,6.0,7.0,97,0.00,,,0.22,JWX,2013-12-06 10:17:00,
2013-12-06 05:22:00,42.0,41.3,30.00,North,349,7.0,7.0,97,0.00,,,0.22,JWX,2013-12-06 10:22:00,
2013-12-06 05:27:00,41.9,41.1,29.99,North,351,6.0,6.0,97,0.00,,,0.22,JWX,2013-12-06 10:27:00,
2013-12-06 05:32:00,41.8,40.9,29.99,North,5,5.0,6.0,97,0.00,,,0.22,JWX,2013-12-06 10:32:00,
2013-12-06 05:37:00,41.7,40.9,30.00,North,349,4.0,4.0,97,0.00,,,0.22,JWX,2013-12-06 10:37:00,
2013-12-06 05:42:00,41.6,40.8,30.01,NNW,344,5.0,5.0,97,0.00,,,0.22,JWX,2013-12-06 10:42:00,
2013-12-06 05:47:00,41.4,40.6,30.00,NNW,342,4.0,0.0,97,0.01,,,0.23,JWX,2013-12-06 10:47:00,
2013-12-06 05:52:00,41.4,40.6,30.00,NNW,342,2.0,2.0,97,0.01,,,0.23,JWX,2013-12-06 10:52:00,
2013-12-06 05:57:00,41.3,40.6,30.02,NNW,341,2.0,4.0,97,0.01,,,0.23,JWX,2013-12-06 10:57:00,
2013-12-06 06:02:00,41.3,40.6,30.03,NNW,332,3.0,5.0,97,0.00,,,0.23,JWX,2013-12-06 11:02:00,
2013-12-06 06:07:00,41.2,40.4,30.05,NW,326,4.0,10.0,97,0.01,,,0.24,JWX,2013-12-06 11:07:00,
2013-12-06 06:12:00,40.9,40.0,30.03,NNW,344,6.0,6.0,97,0.03,,,0.26,JWX,2013-12-06 11:12:00,
2013-12-06 06:17:00,40.7,39.9,30.03,NNW,338,6.0,6.0,97,0.05,,,0.28,JWX,2013-12-06 11:17:00,
2013-12-06 06:22:00,40.7,39.9,30.03,NNW,331,4.0,7.0,97,0.07,,,0.30,JWX,2013-12-06 11:22:00,
2013-12-06 06:27:00,40.6,39.9,30.04,North,350,4.0,5.0,97,0.08,,,0.31,JWX,2013-12-06 11:27:00,
2013-12-06 06:32:00,40.6,39.9,30.04,NNW,339,5.0,5.0,97,0.09,,,0.32,JWX,2013-12-06 11:32:00,
2013-12-06 06:37:00,40.6,39.9,30.03,NNW,346,6.0,6.0,97,0.09,,,0.32,JWX,2013-12-06 11:37:00,
2013-12-06 06:42:00,40.5,39.7,30.05,NNW,332,6.0,7.0,97,0.09,,,0.32,JWX,2013-12-06 11:42:00,
2013-12-06 06:47:00,40.3,39.5,30.05,NNW,341,7.0,7.0,97,0.09,,,0.32,JWX,2013-12-06 11:47:00,
2013-12-06 06:52:00,40.2,39.5,30.04,NNW,340,7.0,7.0,97,0.09,,,0.32,JWX,2013-12-06 11:52:00,
2013-12-06 06:57:00,40.1,39.3,30.04,NNW,346,6.0,6.0,97,0.10,,,0.33,JWX,2013-12-06 11:57:00,
2013-12-06 07:02:00,40.1,39.3,30.04,NNW,340,5.0,5.0,97,0.00,,,0.33,JWX,2013-12-06 12:02:00,
2013-12-06 07:07:00,40.2,39.5,30.04,NNW,345,5.0,5.0,97,0.00,,,0.33,JWX,2013-12-06 12:07:00,
2013-12-06 07:12:00,40.2,39.5,30.05,NNW,332,5.0,5.0,97,0.00,,,0.33,JWX,2013-12-06 12:12:00,
2013-12-06 07:17:00,40.2,39.5,30.04,North,352,5.0,8.0,97,0.01,,,0.34,JWX,2013-12-06 12:17:00,
2013-12-06 07:22:00,40.1,39.3,30.05,NNW,341,5.0,6.0,97,0.01,,,0.34,JWX,2013-12-06 12:22:00,
2013-12-06 07:27:00,40.1,39.3,30.06,NNW,337,5.0,5.0,97,0.01,,,0.34,JWX,2013-12-06 12:27:00,
2013-12-06 07:32:00,40.1,39.6,30.06,North,355,5.0,5.0,98,0.01,,,0.34,JWX,2013-12-06 12:32:00,
2013-12-06 07:37:00,40.1,39.6,30.07,NNW,340,5.0,5.0,98,0.01,,,0.34,JWX,2013-12-06 12:37:00,
2013-12-06 07:42:00,40.1,39.3,30.06,NNW,341,5.0,5.0,97,0.01,,,0.34,JWX,2013-12-06 12:42:00,
2013-12-06 07:47:00,40.1,39.3,30.05,NNW,337,5.0,6.0,97,0.01,,,0.34,JWX,2013-12-06 12:47:00,
2013-12-06 07:52:00,40.1,39.6,30.07,NNW,333,5.0,5.0,98,0.02,,,0.35,JWX,2013-12-06 12:52:00,
2013-12-06 07:57:00,40.1,39.3,30.06,North,5,5.0,10.0,97,0.02,,,0.35,JWX,2013-12-06 12:57:00,
2013-12-06 08:02:00,40.1,39.6,30.07,NNW,332,5.0,7.0,98,0.00,,,0.35,JWX,2013-12-06 13:02:00,
2013-12-06 08:07:00,40.1,39.6,30.07,NNW,347,6.0,11.0,98,0.00,,,0.35,JWX,2013-12-06 13:07:00,
2013-12-06 08:12:00,40.0,39.4,30.09,NNW,338,6.0,8.0,98,0.00,,,0.35,JWX,2013-12-06 13:12:00,
2013-12-06 08:17:00,40.0,39.4,30.09,NNW,338,6.0,6.0,98,0.00,,,0.35,JWX,2013-12-06 13:17:00,
2013-12-06 08:22:00,40.0,39.4,30.08,NNW,337,7.0,7.0,98,0.00,,,0.35,JWX,2013-12-06 13:22:00,
2013-12-06 08:27:00,40.0,39.4,30.08,NNW,342,7.0,13.0,98,0.01,,,0.36,JWX,2013-12-06 13:27:00,
2013-12-06 08:32:00,39.8,39.2,30.08,NNW,347,7.0,7.0,98,0.01,,,0.36,JWX,2013-12-06 13:32:00,
2013-12-06 08:37:00,39.8,39.2,30.08,North,351,6.0,6.0,98,0.01,,,0.36,JWX,2013-12-06 13:37:00,
2013-12-06 08:42:00,39.8,39.2,30.08,North,8,5.0,5.0,98,0.01,,,0.36,JWX,2013-12-06 13:42:00,
2013-12-06 08:47:00,39.7,39.0,30.08,North,354,5.0,5.0,97,0.02,,,0.37,JWX,2013-12-06 13:47:00,
2013-12-06 08:52:00,39.7,39.0,30.08,NNW,331,5.0,5.0,97,0.02,,,0.37,JWX,2013-12-06 13:52:00,
2013-12-06 08:57:00,39.7,39.0,30.08,North,354,4.0,4.0,97,0.03,,,0.38,JWX,2013-12-06 13:57:00,
2013-12-06 09:02:00,39.8,39.2,30.07,North,355,2.0,2.0,98,0.00,,,0.38,JWX,2013-12-06 14:02:00,
2013-12-06 09:07:00,39.8,39.2,30.07,North,355,1.0,0.0,98,0.00,,,0.38,JWX,2013-12-06 14:07:00,
2013-12-06 09:12:00,39.9,39.4,30.07,North,355,1.0,0.0,98,0.00,,,0.38,JWX,2013-12-06 14:12:00,
2013-12-06 09:17:00,40.0,39.4,30.07,North,355,1.0,0.0,98,0.00,,,0.38,JWX,2013-12-06 14:17:00,
2013-12-06 09:22:00,40.2,39.8,30.06,North,355,1.0,3.0,98,0.00,,,0.38,JWX,2013-12-06 14:22:00,
2013-12-06 09:27:00,40.4,39.9,30.06,North,355,1.0,4.0,98,0.00,,,0.38,JWX,2013-12-06 14:27:00,
2013-12-06 09:32:00,40.4,39.9,30.06,North,355,3.0,5.0,98,0.00,,,0.38,JWX,2013-12-06 14:32:00,
2013-12-06 09:37:00,40.4,39.9,30.07,NNW,339,3.0,4.0,98,0.00,,,0.38,JWX,2013-12-06 14:37:00,
2013-12-06 09:42:00,40.4,39.9,30.07,NNW,338,4.0,4.0,98,0.00,,,0.38,JWX,2013-12-06 14:42:00,
2013-12-06 09:47:00,40.4,39.9,30.08,NNW,337,3.0,4.0,98,0.00,,,0.38,JWX,2013-12-06 14:47:00,
2013-12-06 09:52:00,40.4,39.9,30.06,NNW,344,4.0,4.0,98,0.00,,,0.38,JWX,2013-12-06 14:52:00,
2013-12-06 09:57:00,40.4,39.9,30.07,NNW,345,4.0,4.0,98,0.00,,,0.38,JWX,2013-12-06 14:57:00,
2013-12-06 10:02:00,40.4,39.9,30.08,NNW,344,3.0,3.0,98,0.00,,,0.38,JWX,2013-12-06 15:02:00,
2013-12-06 10:07:00,40.4,39.9,30.07,NNW,346,3.0,3.0,98,0.00,,,0.38,JWX,2013-12-06 15:07:00,
2013-12-06 10:12:00,40.3,39.8,30.09,NNW,346,3.0,3.0,98,0.00,,,0.38,JWX,2013-12-06 15:12:00,
2013-12-06 10:17:00,40.4,39.9,30.08,NNW,344,3.0,4.0,98,0.00,,,0.38,JWX,2013-12-06 15:17:00,
2013-12-06 10:22:00,40.4,39.9,30.09,NNW,338,4.0,4.0,98,0.00,,,0.38,JWX,2013-12-06 15:22:00,
2013-12-06 10:27:00,40.6,40.1,30.10,NNW,333,5.0,6.0,98,0.00,,,0.38,JWX,2013-12-06 15:27:00,
2013-12-06 10:32:00,40.9,40.3,30.11,NW,307,4.0,4.0,98,0.00,,,0.38,JWX,2013-12-06 15:32:00,
2013-12-06 10:37:00,41.1,40.7,30.11,NNW,333,4.0,4.0,98,0.00,,,0.38,JWX,2013-12-06 15:37:00,
2013-12-06 10:42:00,41.2,40.7,30.11,NNW,332,4.0,4.0,98,0.00,,,0.38,JWX,2013-12-06 15:42:00,
2013-12-06 10:47:00,41.3,40.8,30.11,NNW,347,5.0,5.0,98,0.00,,,0.38,JWX,2013-12-06 15:47:00,
2013-12-06 10:52:00,41.3,40.8,30.11,NNW,337,5.0,6.0,98,0.00,,,0.38,JWX,2013-12-06 15:52:00,
2013-12-06 10:57:00,41.1,40.7,30.11,NNW,331,6.0,6.0,98,0.00,,,0.38,JWX,2013-12-06 15:57:00,
2013-12-06 11:02:00,41.1,40.7,30.11,NNW,333,6.0,6.0,98,0.00,,,0.38,JWX,2013-12-06 16:02:00,
2013-12-06 11:07:00,41.2,40.7,30.11,NNW,347,5.0,5.0,98,0.00,,,0.38,JWX,2013-12-06 16:07:00,
2013-12-06 11:12:00,40.8,40.0,30.11,North,355,6.0,6.0,97,0.00,,,0.38,JWX,2013-12-06 16:12:00,
2013-12-06 11:17:00,40.8,40.0,30.11,NNW,341,6.0,8.0,97,0.00,,,0.38,JWX,2013-12-06 16:17:00,
2013-12-06 11:22:00,40.9,40.0,30.10,NNW,342,5.0,5.0,97,0.00,,,0.38,JWX,2013-12-06 16:22:00,
2013-12-06 11:27:00,40.7,39.6,30.10,North,355,6.0,10.0,96,0.00,,,0.38,JWX,2013-12-06 16:27:00,
2013-12-06 11:32:00,40.6,39.6,30.09,NNW,346,6.0,12.0,96,0.00,,,0.38,JWX,2013-12-06 16:32:00,
2013-12-06 11:37:00,40.6,39.6,30.09,NNW,340,5.0,6.0,96,0.00,,,0.38,JWX,2013-12-06 16:37:00,
2013-12-06 11:42:00,40.6,39.6,30.10,NNW,334,5.0,5.0,96,0.00,,,0.38,JWX,2013-12-06 16:42:00,
2013-12-06 11:47:00,40.6,39.6,30.10,NNW,336,4.0,5.0,96,0.00,,,0.38,JWX,2013-12-06 16:47:00,
2013-12-06 11:52:00,40.5,39.1,30.10,North,349,5.0,5.0,95,0.00,,,0.38,JWX,2013-12-06 16:52:00,
2013-12-06 11:57:00,40.5,39.1,30.09,NNW,348,5.0,5.0,95,0.00,,,0.38,JWX,2013-12-06 16:57:00,
2013-12-06 12:02:00,40.7,39.3,30.09,North,350,4.0,6.0,95,0.00,,,0.38,JWX,2013-12-06 17:02:00,
2013-12-06 12:07:00,40.7,39.3,30.09,NNW,346,5.0,7.0,95,0.00,,,0.38,JWX,2013-12-06 17:07:00,
2013-12-06 12:12:00,40.7,39.1,30.09,NNW,341,6.0,10.0,94,0.00,,,0.38,JWX,2013-12-06 17:12:00,
2013-12-06 12:17:00,40.7,38.8,30.07,North,357,7.0,7.0,93,0.00,,,0.38,JWX,2013-12-06 17:17:00,
2013-12-06 12:22:00,41.1,39.6,30.07,North,4,5.0,5.0,94,0.00,,,0.38,JWX,2013-12-06 17:22:00,
2013-12-06 12:27:00,41.4,39.8,30.08,NNW,340,4.0,6.0,94,0.00,,,0.38,JWX,2013-12-06 17:27:00,
2013-12-06 12:32:00,41.6,39.4,30.06,NNW,347,6.0,6.0,92,0.00,,,0.38,JWX,2013-12-06 17:32:00,
2013-12-06 12:37:00,41.7,39.3,30.05,NNE,12,5.0,5.0,91,0.00,,,0.38,JWX,2013-12-06 17:37:00,
2013-12-06 12:42:00,41.7,39.3,30.05,NNW,346,3.0,11.0,91,0.00,,,0.38,JWX,2013-12-06 17:42:00,
2013-12-06 12:47:00,41.7,39.3,30.04,North,10,4.0,5.0,91,0.00,,,0.38,JWX,2013-12-06 17:47:00,
2013-12-06 12:52:00,41.7,39.0,30.05,NNW,338,4.0,4.0,90,0.00,,,0.38,JWX,2013-12-06 17:52:00,
2013-12-06 12:57:00,41.6,38.5,30.07,North,350,4.0,7.0,89,0.00,,,0.38,JWX,2013-12-06 17:57:00,
2013-12-06 13:02:00,41.4,38.4,30.06,NNW,343,5.0,7.0,89,0.00,,,0.38,JWX,2013-12-06 18:02:00,
2013-12-06 13:07:00,41.3,38.4,30.06,North,350,6.0,6.0,89,0.00,,,0.38,JWX,2013-12-06 18:07:00,
2013-12-06 13:12:00,41.2,38.5,30.07,NNW,344,3.0,3.0,90,0.00,,,0.38,JWX,2013-12-06 18:12:00,
2013-12-06 13:17:00,41.2,38.2,30.07,North,355,2.0,2.0,89,0.00,,,0.38,JWX,2013-12-06 18:17:00,
2013-12-06 13:22:00,41.1,38.2,30.06,NNE,26,2.0,5.0,89,0.00,,,0.38,JWX,2013-12-06 18:22:00,
2013-12-06 13:27:00,41.1,38.2,30.06,NNE,13,2.0,2.0,89,0.00,,,0.38,JWX,2013-12-06 18:27:00,
2013-12-06 13:32:00,41.0,39.4,30.06,North,356,3.0,4.0,94,0.00,,,0.38,JWX,2013-12-06 18:32:00,
2013-12-06 13:37:00,40.9,37.5,30.05,North,8,4.0,9.0,88,0.00,,,0.38,JWX,2013-12-06 18:37:00,
2013-12-06 13:42:00,40.7,37.7,30.06,North,355,5.0,7.0,89,0.00,,,0.38,JWX,2013-12-06 18:42:00,
2013-12-06 13:47:00,40.6,37.4,30.07,North,351,5.0,9.0,88,0.00,,,0.38,JWX,2013-12-06 18:47:00,
2013-12-06 13:52:00,40.5,37.5,30.08,North,359,5.0,5.0,89,0.00,,,0.38,JWX,2013-12-06 18:52:00,
2013-12-06 13:57:00,40.4,37.5,30.09,NNW,336,5.0,6.0,89,0.00,,,0.38,JWX,2013-12-06 18:57:00,
2013-12-06 14:02:00,40.2,37.3,30.09,North,350,5.0,5.0,89,0.00,,,0.38,JWX,2013-12-06 19:02:00,
2013-12-06 14:07:00,40.1,37.1,30.09,NNE,21,5.0,6.0,89,0.00,,,0.38,JWX,2013-12-06 19:07:00,
2013-12-06 14:12:00,40.0,37.2,30.10,North,355,4.0,5.0,90,0.00,,,0.38,JWX,2013-12-06 19:12:00,
2013-12-06 14:17:00,39.9,37.2,30.09,NNE,19,4.0,4.0,90,0.01,,,0.39,JWX,2013-12-06 19:17:00,
2013-12-06 14:22:00,39.6,37.2,30.08,NNE,12,4.0,6.0,91,0.01,,,0.39,JWX,2013-12-06 19:22:00,
2013-12-06 14:27:00,39.4,37.3,30.07,NNE,12,4.0,6.0,92,0.02,,,0.40,JWX,2013-12-06 19:27:00,
2013-12-06 14:32:00,39.1,37.2,30.06,NNE,31,3.0,3.0,93,0.02,,,0.40,JWX,2013-12-06 19:32:00,
2013-12-06 14:37:00,39.0,37.4,30.06,North,2,3.0,5.0,94,0.03,,,0.41,JWX,2013-12-06 19:37:00,
2013-12-06 14:42:00,39.0,37.4,30.06,North,7,3.0,3.0,94,0.03,,,0.41,JWX,2013-12-06 19:42:00,
2013-12-06 14:47:00,39.0,37.4,30.05,NNE,26,3.0,3.0,94,0.03,,,0.41,JWX,2013-12-06 19:47:00,
2013-12-06 14:52:00,39.0,37.7,30.06,NNE,16,3.0,0.0,95,0.03,,,0.41,JWX,2013-12-06 19:52:00,
2013-12-06 14:57:00,39.0,37.7,30.05,NNE,18,3.0,3.0,95,0.03,,,0.41,JWX,2013-12-06 19:57:00,
2013-12-06 15:02:00,38.8,37.5,30.06,North,5,3.0,0.0,95,0.00,,,0.41,JWX,2013-12-06 20:02:00,
2013-12-06 15:07:00,38.7,37.4,30.07,North,5,3.0,3.0,95,0.00,,,0.41,JWX,2013-12-06 20:07:00,
2013-12-06 15:12:00,38.6,37.4,30.07,North,5,1.0,1.0,95,0.00,,,0.41,JWX,2013-12-06 20:12:00,
2013-12-06 15:17:00,38.5,37.2,30.07,North,5,1.0,0.0,95,0.00,,,0.41,JWX,2013-12-06 20:17:00,
2013-12-06 15:22:00,38.4,37.2,30.08,North,5,0.0,0.0,95,0.01,,,0.42,JWX,2013-12-06 20:22:00,
2013-12-06 15:27:00,38.3,37.0,30.08,North,5,0.0,0.0,95,0.01,,,0.42,JWX,2013-12-06 20:27:00,
2013-12-06 15:32:00,38.3,37.0,30.07,North,5,1.0,0.0,95,0.02,,,0.43,JWX,2013-12-06 20:32:00,
2013-12-06 15:37:00,38.2,37.1,30.08,North,5,1.0,0.0,96,0.02,,,0.43,JWX,2013-12-06 20:37:00,
2013-12-06 15:42:00,38.1,37.1,30.09,North,5,0.0,3.0,96,0.03,,,0.44,JWX,2013-12-06 20:42:00,
2013-12-06 15:47:00,38.1,37.1,30.09,North,5,1.0,0.0,96,0.04,,,0.45,JWX,2013-12-06 20:47:00,
2013-12-06 15:52:00,38.1,37.1,30.10,North,5,1.0,2.0,96,0.04,,,0.45,JWX,2013-12-06 20:52:00,
2013-12-06 15:57:00,38.1,37.1,30.09,North,11,2.0,0.0,96,0.06,,,0.47,JWX,2013-12-06 20:57:00,
2013-12-06 16:02:00,37.9,36.9,30.09,North,355,3.0,5.0,96,0.00,,,0.47,JWX,2013-12-06 21:02:00,
2013-12-06 16:07:00,37.4,36.1,30.09,NNW,342,4.0,5.0,95,0.01,,,0.48,JWX,2013-12-06 21:07:00,
2013-12-06 16:12:00,37.0,35.7,30.09,North,354,4.0,4.0,95,0.02,,,0.49,JWX,2013-12-06 21:12:00,
2013-12-06 16:17:00,36.6,35.4,30.09,North,349,4.0,5.0,95,0.02,,,0.49,JWX,2013-12-06 21:17:00,
2013-12-06 16:22:00,36.5,35.2,30.09,NNW,348,3.0,4.0,95,0.02,,,0.49,JWX,2013-12-06 21:22:00,
2013-12-06 16:27:00,36.4,35.0,30.08,North,354,3.0,4.0,95,0.02,,,0.49,JWX,2013-12-06 21:27:00,
2013-12-06 16:32:00,36.2,34.8,30.08,North,351,4.0,4.0,95,0.02,,,0.49,JWX,2013-12-06 21:32:00,
2013-12-06 16:37:00,36.1,34.8,30.08,NNW,346,4.0,4.0,95,0.03,,,0.50,JWX,2013-12-06 21:37:00,
2013-12-06 16:42:00,36.0,34.7,30.09,North,350,4.0,4.0,95,0.03,,,0.50,JWX,2013-12-06 21:42:00,
2013-12-06 16:47:00,36.0,34.7,30.11,NNW,342,3.0,4.0,95,0.03,,,0.50,JWX,2013-12-06 21:47:00,
2013-12-06 16:52:00,36.0,34.7,30.11,NNW,336,3.0,3.0,95,0.03,,,0.50,JWX,2013-12-06 21:52:00,
2013-12-06 16:57:00,35.9,34.7,30.12,NNW,331,4.0,6.0,95,0.04,,,0.51,JWX,2013-12-06 21:57:00,
2013-12-06 17:02:00,35.8,34.5,30.12,North,351,4.0,5.0,95,0.00,,,0.51,JWX,2013-12-06 22:02:00,
2013-12-06 17:07:00,35.6,34.3,30.13,North,351,5.0,6.0,95,0.01,,,0.52,JWX,2013-12-06 22:07:00,
2013-12-06 17:12:00,35.4,34.1,30.13,North,8,5.0,6.0,95,0.03,,,0.54,JWX,2013-12-06 22:12:00,
2013-12-06 17:17:00,35.2,34.0,30.12,North,355,4.0,4.0,95,0.05,,,0.56,JWX,2013-12-06 22:17:00,
2013-12-06 17:22:00,35.1,33.8,30.13,North,355,4.0,4.0,95,0.06,,,0.57,JWX,2013-12-06 22:22:00,
2013-12-06 17:27:00,35.0,33.8,30.13,North,355,4.0,4.0,95,0.06,,,0.57,JWX,2013-12-06 22:27:00,
2013-12-06 17:32:00,35.0,33.8,30.13,North,355,3.0,4.0,95,0.07,,,0.58,JWX,2013-12-06 22:32:00,
2013-12-06 17:37:00,34.8,33.6,30.13,NNW,347,4.0,4.0,95,0.07,,,0.58,JWX,2013-12-06 22:37:00,
2013-12-06 17:42:00,34.8,33.6,30.14,North,355,3.0,3.0,95,0.07,,,0.58,JWX,2013-12-06 22:42:00,
2013-12-06 17:47:00,34.7,33.4,30.13,North,355,2.0,3.0,95,0.09,,,0.60,JWX,2013-12-06 22:47:00,
2013-12-06 17:52:00,34.6,33.2,30.12,NNE,19,2.0,3.0,95,0.10,,,0.61,JWX,2013-12-06 22:52:00,
2013-12-06 17:57:00,34.6,33.2,30.12,NNE,19,2.0,2.0,95,0.10,,,0.61,JWX,2013-12-06 22:57:00,
2013-12-06 18:02:00,34.6,33.2,30.12,NNE,19,1.0,0.0,95,0.00,,,0.62,JWX,2013-12-06 23:02:00,
2013-12-06 18:07:00,34.6,33.5,30.13,NNE,13,2.0,3.0,96,0.00,,,0.62,JWX,2013-12-06 23:07:00,
2013-12-06 18:12:00,34.5,33.5,30.13,NNE,13,1.0,1.0,96,0.00,,,0.62,JWX,2013-12-06 23:12:00,
2013-12-06 18:17:00,34.6,33.5,30.12,NNE,13,1.0,0.0,96,0.00,,,0.62,JWX,2013-12-06 23:17:00,
2013-12-06 18:22:00,34.5,33.5,30.11,NNE,13,1.0,0.0,96,0.01,,,0.63,JWX,2013-12-06 23:22:00,
2013-12-06 18:27:00,34.5,33.5,30.11,NNE,13,0.0,0.0,96,0.01,,,0.63,JWX,2013-12-06 23:27:00,
2013-12-06 18:32:00,34.4,33.3,30.11,NNE,13,0.0,0.0,96,0.01,,,0.63,JWX,2013-12-06 23:32:00,
2013-12-06 18:37:00,34.5,33.5,30.12,NNE,13,0.0,0.0,96,0.01,,,0.63,JWX,2013-12-06 23:37:00,
2013-12-06 18:42:00,34.5,33.5,30.12,NNE,13,0.0,0.0,96,0.02,,,0.64,JWX,2013-12-06 23:42:00,
2013-12-06 18:47:00,34.5,33.5,30.14,NNE,13,0.0,3.0,96,0.02,,,0.64,JWX,2013-12-06 23:47:00,
2013-12-06 18:52:00,34.5,33.5,30.14,NNE,13,1.0,2.0,96,0.03,,,0.65,JWX,2013-12-06 23:52:00,
2013-12-06 18:57:00,34.5,33.5,30.15,North,5,2.0,0.0,96,0.04,,,0.66,JWX,2013-12-06 23:57:00,
2013-12-06 19:02:00,34.5,33.5,30.15,NNW,346,2.0,4.0,96,0.01,,,0.67,JWX,2013-12-07 00:02:00,
2013-12-06 19:07:00,34.4,33.3,30.16,NNW,339,3.0,5.0,96,0.02,,,0.68,JWX,2013-12-07 00:07:00,
2013-12-06 19:12:00,34.4,33.3,30.17,NNW,336,3.0,0.0,96,0.03,,,0.69,JWX,2013-12-07 00:12:00,
2013-12-06 19:17:00,34.4,33.3,30.16,NNW,336,2.0,5.0,96,0.03,,,0.69,JWX,2013-12-07 00:17:00,
2013-12-06 19:22:00,34.3,33.3,30.17,NNW,341,3.0,3.0,96,0.04,,,0.70,JWX,2013-12-07 00:22:00,
2013-12-06 19:27:00,34.3,33.3,30.18,NNW,334,4.0,4.0,96,0.05,,,0.71,JWX,2013-12-07 00:27:00,
2013-12-06 19:32:00,34.1,33.1,30.16,NNW,342,3.0,3.0,96,0.05,,,0.71,JWX,2013-12-07 00:32:00,
2013-12-06 19:37:00,34.0,33.0,30.12,North,355,2.0,3.0,96,0.06,,,0.72,JWX,2013-12-07 00:37:00,
2013-12-06 19:42:00,33.9,33.0,30.12,North,0,2.0,3.0,96,0.07,,,0.73,JWX,2013-12-07 00:42:00,
2013-12-06 19:47:00,33.8,33.0,30.12,North,0,2.0,0.0,97,0.07,,,0.73,JWX,2013-12-07 00:47:00,
2013-12-06 19:52:00,33.8,33.0,30.13,North,0,2.0,0.0,97,0.08,,,0.74,JWX,2013-12-07 00:52:00,
2013-12-06 19:57:00,33.8,33.0,30.14,North,0,2.0,0.0,97,0.08,,,0.74,JWX,2013-12-07 00:57:00,
2013-12-06 20:02:00,33.7,32.9,30.14,North,0,1.0,2.0,97,0.00,,,0.74,JWX,2013-12-07 01:02:00,
2013-12-06 20:07:00,33.7,32.9,30.14,North,355,1.0,0.0,97,0.00,,,0.74,JWX,2013-12-07 01:07:00,
2013-12-06 20:12:00,33.7,32.9,30.14,North,355,1.0,3.0,97,0.00,,,0.74,JWX,2013-12-07 01:12:00,
2013-12-06 20:17:00,33.6,32.9,30.16,North,355,1.0,0.0,97,0.00,,,0.74,JWX,2013-12-07 01:17:00,
2013-12-06 20:22:00,33.6,32.9,30.16,North,351,1.0,1.0,97,0.01,,,0.75,JWX,2013-12-07 01:22:00,
2013-12-06 20:27:00,33.5,32.7,30.16,North,351,1.0,2.0,97,0.02,,,0.76,JWX,2013-12-07 01:27:00,
2013-12-06 20:32:00,33.4,32.7,30.15,North,351,1.0,2.0,97,0.03,,,0.77,JWX,2013-12-07 01:32:00,
2013-12-06 20:37:00,33.2,32.5,30.16,North,351,1.0,0.0,97,0.03,,,0.77,JWX,2013-12-07 01:37:00,
2013-12-06 20:42:00,33.1,32.3,30.17,North,351,1.0,2.0,97,0.04,,,0.78,JWX,2013-12-07 01:42:00,
2013-12-06 20:47:00,33.0,32.3,30.17,North,351,1.0,0.0,97,0.04,,,0.78,JWX,2013-12-07 01:47:00,
2013-12-06 20:52:00,32.8,31.7,30.16,North,351,1.0,5.0,96,0.04,,,0.78,JWX,2013-12-07 01:52:00,
2013-12-06 20:57:00,32.7,32.0,30.15,North,350,2.0,4.0,97,0.04,,,0.78,JWX,2013-12-07 01:57:00,
2013-12-06 21:02:00,32.6,31.8,30.15,NNW,344,3.0,3.0,97,0.00,,,0.79,JWX,2013-12-07 02:02:00,
2013-12-06 21:07:00,32.6,31.8,30.16,NNW,340,3.0,4.0,97,0.00,,,0.79,JWX,2013-12-07 02:07:00,
2013-12-06 21:12:00,32.5,31.8,30.18,NNW,327,2.0,2.0,97,0.00,,,0.79,JWX,2013-12-07 02:12:00,
2013-12-06 21:17:00,32.5,31.8,30.18,NW,311,3.0,3.0,97,0.00,,,0.79,JWX,2013-12-07 02:17:00,
2013-12-06 21:22:00,32.5,31.8,30.18,NW,313,3.0,0.0,97,0.00,,,0.79,JWX,2013-12-07 02:22:00,
2013-12-06 21:27:00,32.5,31.8,30.18,NW,313,2.0,3.0,97,0.00,,,0.79,JWX,2013-12-07 02:27:00,
2013-12-06 21:32:00,32.4,31.6,30.17,NW,321,2.0,4.0,97,0.00,,,0.79,JWX,2013-12-07 02:32:00,
2013-12-06 21:37:00,32.3,31.6,30.17,NW,325,3.0,3.0,97,0.00,,,0.79,JWX,2013-12-07 02:37:00,
2013-12-06 21:42:00,32.1,31.4,30.17,NNW,344,4.0,4.0,97,0.00,,,0.79,JWX,2013-12-07 02:42:00,
2013-12-06 21:47:00,32.0,31.2,30.17,NNW,332,4.0,4.0,97,0.00,,,0.79,JWX,2013-12-07 02:47:00,
2013-12-06 21:52:00,31.9,31.1,30.17,North,356,5.0,5.0,97,0.00,,,0.79,JWX,2013-12-07 02:52:00,
2013-12-06 21:57:00,31.8,31.1,30.18,NNW,339,5.0,5.0,97,0.00,,,0.79,JWX,2013-12-07 02:57:00,
2013-12-06 22:02:00,31.7,30.9,30.19,NNW,342,3.0,0.0,97,0.00,,,0.79,JWX,2013-12-07 03:02:00,
2013-12-06 22:07:00,31.7,30.9,30.20,NNW,344,2.0,5.0,97,0.00,,,0.79,JWX,2013-12-07 03:07:00,
2013-12-06 22:12:00,31.8,31.1,30.20,NNW,336,3.0,3.0,97,0.00,,,0.79,JWX,2013-12-07 03:12:00,
2013-12-06 22:17:00,31.7,30.9,30.20,NNW,336,2.0,2.0,97,0.00,,,0.79,JWX,2013-12-07 03:17:00,
2013-12-06 22:22:00,31.8,31.1,30.19,North,354,2.0,4.0,97,0.00,,,0.79,JWX,2013-12-07 03:22:00,
2013-12-06 22:27:00,31.7,30.9,30.19,North,11,3.0,4.0,97,0.00,,,0.79,JWX,2013-12-07 03:27:00,
2013-12-06 22:32:00,31.7,30.9,30.20,North,5,4.0,4.0,97,0.00,,,0.79,JWX,2013-12-07 03:32:00,
2013-12-06 22:37:00,31.8,31.1,30.20,North,7,3.0,4.0,97,0.00,,,0.79,JWX,2013-12-07 03:37:00,
2013-12-06 22:42:00,31.9,31.1,30.20,North,5,3.0,4.0,97,0.00,,,0.79,JWX,2013-12-07 03:42:00,
2013-12-06 22:47:00,31.9,31.1,30.21,NNE,21,3.0,3.0,97,0.00,,,0.79,JWX,2013-12-07 03:47:00,
2013-12-06 22:52:00,31.8,31.1,30.21,NNE,15,3.0,4.0,97,0.00,,,0.79,JWX,2013-12-07 03:52:00,
2013-12-06 22:57:00,31.7,30.9,30.21,North,355,3.0,5.0,97,0.00,,,0.79,JWX,2013-12-07 03:57:00,
2013-12-06 23:02:00,31.7,30.9,30.20,North,5,3.0,3.0,97,0.00,,,0.79,JWX,2013-12-07 04:02:00,
2013-12-06 23:07:00,31.5,30.7,30.19,NNE,23,4.0,6.0,97,0.00,,,0.79,JWX,2013-12-07 04:07:00,
2013-12-06 23:12:00,31.4,30.7,30.19,North,0,4.0,6.0,97,0.00,,,0.79,JWX,2013-12-07 04:12:00,
2013-12-06 23:17:00,31.4,30.7,30.19,NNE,12,4.0,0.0,97,0.00,,,0.79,JWX,2013-12-07 04:17:00,
2013-12-06 23:22:00,31.3,30.5,30.19,NNE,19,3.0,4.0,97,0.00,,,0.79,JWX,2013-12-07 04:22:00,
2013-12-06 23:27:00,31.3,30.5,30.19,NNE,22,2.0,3.0,97,0.00,,,0.79,JWX,2013-12-07 04:27:00,
2013-12-06 23:32:00,31.3,30.5,30.17,NNE,26,2.0,3.0,97,0.00,,,0.79,JWX,2013-12-07 04:32:00,
2013-12-06 23:37:00,31.2,30.5,30.16,NE,54,2.0,3.0,97,0.00,,,0.79,JWX,2013-12-07 04:37:00,
2013-12-06 23:42:00,31.0,30.2,30.17,NNE,31,3.0,4.0,97,0.00,,,0.79,JWX,2013-12-07 04:42:00,
2013-12-06 23:47:00,30.9,30.2,30.18,North,5,3.0,3.0,97,0.00,,,0.79,JWX,2013-12-07 04:47:00,
2013-12-06 23:52:00,30.9,30.2,30.20,North,11,4.0,4.0,97,0.00,,,0.79,JWX,2013-12-07 04:52:00,
2013-12-06 23:57:00,30.9,30.2,30.20,North,5,4.0,4.0,97,0.00,,,0.79,JWX,2013-12-07 04:57:00,